This is the latest recevied weather packets stored in our database for station/object N9NDF. If no packets are shown the sender has not sent any weather packets the latest 1 day(s).
| Time | Temp. | Humidity | Pressure | Rain* | Wind** | Luminosity | Snow |
|---|---|---|---|---|---|---|---|
| 1778068412 | 6.11° C | 81% | 991.8 hPa | 0 mm | - | 52 W/m² | - |
| 1778068051 | 5.56° C | 82% | 991.7 hPa | 0 mm | - | 43 W/m² | - |
| 1778067871 | 5.56° C | 82% | 991.6 hPa | 0 mm | - | 33 W/m² | - |
| 1778067691 | 5.56° C | 82% | 991.5 hPa | 0 mm | - | 28 W/m² | - |
| 1778067452 | 5.56° C | 83% | 991.4 hPa | 0 mm | - | 27 W/m² | - |
| 1778067332 | 5.56° C | 83% | 991.4 hPa | 0 mm | - | 28 W/m² | - |
| 1778067114 | 5.56° C | 83% | 991.3 hPa | 0 mm | - | 25 W/m² | - |
| 1778066912 | 5.56° C | 84% | 991.2 hPa | 0 mm | - | 26 W/m² | - |
| 1778066792 | 5.56° C | 84% | 991.2 hPa | 0 mm | - | 26 W/m² | - |
| 1778066732 | 5.56° C | 83% | 991.2 hPa | 0 mm | - | 24 W/m² | - |
| 1778066439 | 5.56° C | 83% | 991 hPa | 0 mm | - | 19 W/m² | - |
| 1778066192 | 5.56° C | 83% | 990.8 hPa | 0 mm | - | 16 W/m² | - |
| 1778066132 | 5.56° C | 83% | 990.7 hPa | 0 mm | - | 16 W/m² | - |
| 1778065952 | 5.56° C | 83% | 990.8 hPa | 0 mm | - | 13 W/m² | - |
| 1778065616 | 5.56° C | 82% | 990.7 hPa | 0 mm | - | 8 W/m² | - |
| 1778065590 | 5.56° C | 82% | 990.6 hPa | 0 mm | - | 7 W/m² | - |
| 1778065386 | 5.56° C | 82% | 990.7 hPa | 0 mm | - | 6 W/m² | - |
| 1778065327 | 5.56° C | 82% | 990.7 hPa | 0 mm | - | 6 W/m² | - |
| 1778065266 | 5.56° C | 82% | 990.7 hPa | 0 mm | - | 5 W/m² | - |
| 1778065087 | 5.56° C | 82% | 990.8 hPa | 0 mm | - | 4 W/m² | - |
| 1778064667 | 5.56° C | 82% | 990.6 hPa | 0 mm | - | 3 W/m² | - |
| 1778064611 | 5.56° C | 81% | 990.7 hPa | 0 mm | - | 2 W/m² | - |
| 1778064311 | 5.56° C | 81% | 990.7 hPa | 0 mm | - | 0 W/m² | - |
| 1778064067 | 5.56° C | 81% | 990.7 hPa | 0 mm | - | 0 W/m² | - |
| 1778063948 | 5.56° C | 81% | 990.8 hPa | 0 mm | - | 0 W/m² | - |
* Rain latest hour (hover to see other rain measurements)
** Current wind speed in m/s (hover to see current wind gust speed)